www.pogodaiklimat.ru

Погода и климат >> Архив погоды >> Россия >> Магаданская область >> Эвенск


ПОГОДА в Эвенске

  • Прогноз погоды в Эвенске
  • Монитор погоды в Эвенске

АРХИВ ПОГОДЫ в Эвенске

Время (UTC), дата Ветер
(напр.,м/с)
 
Видим.   Явления Облачность Т
(С)
Тd
(С)
f
(%)
Тe
(С)
Тes
(С)
Комфортность P
(гПа)
Po
(гПа)
Тmin
(С)
Tmax
(С)
R
(мм)
R24
(мм)
S
(см)
06 9.01 штиль 0-19
{19}
10 км в посл. час ливневой снег {метель} 9/9 600 м
[Cb calv]
-9.2 -14.0 68 -10 -10 997.2 995.7
09 9.01 СВ 7-15
{19}
50 км 10/10 600 м
[Cb calv]
-8.6 -15.0 60 -17 -17 997.9 996.4 -8.5 0.0
12 9.01 СВ 5-13
{15}
50 км 8/5 600 м
[Cb calv Ac trans]
-9.3 -15.6 60 -17 -17 998.9 997.4
15 9.01 СВ 5-12
{13}
50 км 6/3 600 м
[Cb calv Ac trans]
-11.2 -17.3 61 -19 -19 1000.2 998.6
18 9.01 СВ 5-12
{13}
50 км 10/0
[Ac trans]
-11.5 -17.8 60 -19 -19 1000.9 999.3
21 9.01 СВ 8-14
{14}
50 км 3/3 1000 м
[Cb calv]
-12.2 -18.7 58 -22 -22 1001.7 1000.2 -12.3 5
00 10.01 С 5-11
{12}
50 км 8/6 600 м
[Cb calv Ci fib]
-11.2 -18.0 57 -19 -19 1002.2 1000.7 -12.5
03 10.01 СВ 6-12
{13}
50 км 8/6 600 м
[Cb calv Ac trans]
-8.6 -15.1 59 -17 -17 1001.6 1000.1
06 10.01 СВ 6-10
{12}
50 км 8/6 600 м
[Cb calv Ac trans]
-8.8 -14.1 65 -17 -17 1001.7 1000.1
09 10.01 СВ 6-11
{14}
4000 м слаб. ливневой снег {метель} 10/10 600 м
[Cb cap]
-8.1 -9.9 87 -16 -16 1001.4 999.9 -8.2 0.0
12 10.01 СВ 9-14
{16}
4000 м слаб. ливневой снег {метель} 10/10 600 м
[Cb cap]
-6.0 -9.5 76 -15 -15 1002.0 1000.5
15 10.01 СВ 8-12
{18}
4000 м {ливн. осадки, метель} 10/10 600 м
[Cb calv]
-5.1 -8.7 76 -14 -14 1003.0 1001.5
18 10.01 СВ 7-11
{14}
50 км 10/10 600 м
[Cb calv]
-4.5 -8.1 76 -13 -13 1004.5 1003.0
21 10.01 СВ 6-11
{12}
50 км 8/8 600 м
[Cb calv]
-4.9 -8.0 79 -13 -13 1006.5 1005.0 -8.1 0.9 5
00 11.01 СВ 6
{12}
50 км 9/9 600 м
[Cb calv]
-4.2 -7.6 77 -12 -12 1008.2 1006.7 -5.0
03 11.01 СВ 7-10
{14}
50 км 10/6 600 м
[Cb calv Ac und]
-4.5 -7.9 77 -13 -13 1008.9 1007.4
06 11.01 СВ 9-11
{17}
50 км 10/10 600 м
[Cb calv]
-4.9 -8.7 75 -14 -14 1011.5 1010.0
09 11.01 СВ 11-15
{18}
50 км 10/10 600 м
[Cb calv]
-5.7 -10.5 69 -16 -16 1013.1 1011.6 -3.7
12 11.01 СВ 10-12
{17}
50 км 10/10 600 м
[Cb calv]
-5.9 -11.4 65 -15 -15 1014.8 1013.3
15 11.01 С 11-17
{21}
50 км 10/10 600 м
[Cb calv]
-5.8 -12.3 60 -16 -16 1014.4 1012.9
18 11.01 СВ 8-12
{18}
50 км 10/10 600 м
[Cb calv]
-8.3 -13.1 68 -18 -18 1016.4 1014.8
21 11.01 СВ 5-10
{12}
50 км 6/6 600 м
[Cb calv]
-9.2 -14.2 67 -17 -17 1017.4 1015.8 -10.0 5
00 12.01 СВ 5
{10}
50 км 10/4 1000 м
[Sc Ac trans]
-9.6 -15.3 63 -17 -17 1017.1 1015.5 -11.2
03 12.01 СВ 6-10
{12}
50 км 6/0
[Ac trans Ci fib]
-9.7 -15.6 62 -18 -18 1017.2 1015.7
06 12.01 СВ 5
{11}
50 км 4/0
[Ac trans]
-11.4 -16.3 67 -19 -19 1017.9 1016.4
09 12.01 СВ 5 50 км 4/0
[Ac trans]
-13.4 -17.8 69 -22 -22 1018.1 1016.5 -9.1
12 12.01 С 5
{10}
50 км 4/0
[Ac trans]
-13.3 -18.3 66 -22 -22 1018.3 1016.7
15 12.01 штиль 0 50 км 3/0
[Ac trans]
-13.5 -18.6 65 -14 -14 1017.7 1016.1
18 12.01 С 5 50 км 3/0
[Ac trans]
-13.5 -19.1 63 -22 -22 1017.2 1015.6
21 12.01 С 4 50 км 4/0
[Ac trans]
-15.2 -20.6 63 -23 -23 1017.0 1015.4 -15.3 5
00 13.01 СВ 7
{11}
50 км 4/0
[Ac trans]
-13.5 -20.4 56 -23 -23 1016.0 1014.5
03 13.01 СВ 4
{10}
50 км 4/0
[Ci fib]
-12.7 -20.4 52 -20 -20 1016.2 1014.6
06 13.01 СВ 7
{13}
50 км 9/0
[As op]
-14.1 -20.7 57 -24 -24 1016.0 1014.4
09 13.01 СВ 5
{12}
50 км ясно -17.2 -22.4 64 -27 -27 1015.8 1014.2
12 13.01 штиль 0
{12}
50 км ясно -17.2 -22.4 64 -17 -17 1015.8 1014.2
15 13.01 С 5
{11}
50 км ясно -19.4 -23.3 71 -29 -29 1016.1 1014.5
18 13.01 СВ 3 50 км ясно -20.1 -24.0 71 -28 -28 1016.4 1014.8
21 13.01 СВ 3 50 км ясно -20.8 -24.8 70 -29 -29 1016.7 1015.1 -20.9 5
00 14.01 СВ 3 50 км 6/3 1000 м
[Sc Ac trans Ci fib]
-20.6 -25.3 66 -28 -28 1017.0 1015.4 -21.7
03 14.01 штиль 0 50 км 6/3 1000 м
[Sc Ac trans Ci]
-17.6 -23.8 58 -18 -18 1017.0 1015.4
06 14.01 штиль 0 10 км слаб. снег 8/0
[As op]
-21.2 -25.1 71 -21 -21 1017.3 1015.7
09 14.01 штиль 0 10 км слаб. снег 8/0
[As op]
-21.5 -25.6 69 -22 -22 1017.7 1016.1 -17.0 0.0
12 14.01 штиль 0 4000 м слаб. снег 10/0
[As op]
-20.6 -24.1 73 -21 -21 1018.2 1016.6
15 14.01 штиль 0 4000 м слаб. снег 10/0
[As op]
-22.7 -26.0 74 -23 -23 1018.2 1016.6
18 14.01 штиль 0 50 км {снег} ясно -24.4 -28.4 69 -24 -24 1018.6 1016.9
21 14.01 С 1 50 км ясно -25.5 -29.3 70 -29 -29 1019.2 1017.5 -26.3 0.0 5
00 15.01 штиль 0 50 км 8/0
[Ac trans]
-26.6 -30.5 69 -27 -26 1019.7 1018.0 -27.1
03 15.01 В 2 50 км 3/0
[Ac trans]
-21.6 -28.7 53 -28 -28 1019.4 1017.8
06 15.01 СВ 1 50 км 1/0
[Ac trans]
-27.5 -31.2 71 -31 -31 опасность
обморожения
1020.3 1018.6
09 15.01 С 3 50 км ясно -29.0 -32.8 70 -38 -38 опасность
обморожения
1020.8 1019.1 -21.4
12 15.01 С 3 50 км ясно -29.0 -32.8 70 -38 -38 опасность
обморожения
1020.8 1019.1 -21.4
15 15.01 С 2 50 км ясно -28.6 -33.1 65 -36 -36 опасность
обморожения
1021.2 1019.5
18 15.01 С 3 50 км ясно -30.3 -33.9 71 -40 -40 опасность
обморожения
1021.7 1020.0
21 15.01 СВ 2 50 км ясно -30.8 -34.3 71 -38 -38 опасность
обморожения
1022.0 1020.3 -31.2 5
00 16.01 С 3 50 км ясно -29.7 -33.2 71 -39 -39 опасность
обморожения
1022.0 1020.3
03 16.01 СВ 1 50 км ясно -23.3 -27.7 67 -27 -27 1021.3 1019.7

 

Местоположение метеостанции Эвенск (Магаданская область, Россия): широта 61.92 долгота 159.20 высота над уровнем моря 12 м.

В архиве по умолчанию представлена погода в Эвенске за последнюю неделю. Архивные данные за месяц целиком и за предыдущие месяцы, начиная с января 2011 года, Вы можете получить, выбрав интересующий диапазон дат из раскрывающегося списка и нажав кнопку "Ввод!".


*Определитесь, кто Вы:
робот инопланетянин человек

Внимание! Время в таблицах - всемирное. Для получения местного времени необходимо прибавить поправку, которая равна 11 ч.

Смотрите также архив погоды в соседних городах и на ближайших метеорологических станциях:

Погода в Лабазной (Магаданская область, Россия) (158 км)
Погода в Омсукчане (Магаданская область, Россия) (188 км)
Погода на Шелихова (Магаданская область, Россия) (225 км)
Погода в Чемурнауте (Камчатский край, Россия) (242 км)
Погода в Кегали (Магаданская область, Россия) (275 км)
Погода в Палане (Камчатский край, Россия) (318 км)
Погода в Балыгычане (Магаданская область, Россия) (340 км)
Погода в Верхне-Пенжино (Камчатский край, Россия) (359 км)
Погода в Среднекане (Магаданская область, Россия) (363 км)
Погода в Оссоре (Камчатский край, Россия) (364 км)

Пояснения к столбцам:

Ветер - указаны скорость ветра в м/с - средняя за 10 мин, порывы в срок и между сроками (в фигурных скобках) и направление, откуда дует ветер: С - северный, СВ - северо-восточный, В - восточный, ЮВ - юго-восточный, Ю - южный, ЮЗ - юго-западный, З - западный, СЗ - северо-западный.
Видимость - горизонтальная дальность видимости в метрах или километрах. При видимости от 1 до 10 км при отсутствии осадков обычно наблюдается дымка, при ухудшении видимости до 1 км и менее - туман. В сухую погоду видимость может ухудшаться дымом, пылью или мглою.
Явления - указаны атмосферные явления, наблюдавшиеся в срок или в последний час перед сроком; фигурными скобками обозначены явления, наблюдавшиеся между сроками (за 1-3 часа до срока); квадратными скобками обозначены град или гололедные отложения с указанием их диаметра в мм.
Облачность - указаны через наклонную черту общая и нижняя облачность в баллах и высота нижней границы облаков в метрах; квадратными скобками обозначены формы облаков: Ci - перистые, Cs - перисто-слоистые, Cc - перисто-кучевые, Ac - высококучевые, As - высокослоистые, Sc - слоисто-кучевые, Ns - слоисто-дождевые, Cu - кучевые, Cb - кучево-дождевые. Подробнее классификацию облаков см. в Атласе облаков (PDF).
T - Температура воздуха - температура, измеренная на высоте 2 м над землей.
Td - Температура точки росы - температура, при понижении до которой содержащийся в воздухе водяной пар достигнет насыщения.
f - Относительная влажность воздуха - влажноcть воздуха, измеренная на высоте 2 м над землей.
Te - Эффективная температура - температура, которую ощущает одетый по сезону человек в тени. Характеристика душности погоды. При расчете учитывается влияние влажности воздуха и скорости ветра на теплоощущения человека.
Tes - Эффективная температура на солнце - температура, которую ощущает человек, с поправкой на солнечный нагрев. Характеристика знойности погоды. Зависит от высоты солнца над горизонтом, облачности и скорости ветра. Ночью, в пасмурную погоду, а также при ветре 12 м/с и более поправка равна нулю.
P - Атмосферное давление - приведенное к уровню моря атмосферное давление.
Po - Атмосферное давление - измеренное на уровне метеостанции атмосферное давление.
Tmin - Минимальная температура - минимум температуры воздуха на высоте 2 м над землей.
Tmax - Максимальная температура - максимум температуры воздуха на высоте 2 м над землей.
R - Количество осадков - Количество выпавших осадков за период времени, мм. При наведении курсора мыши на число - период времени, за который выпало указанное количество осадков.
R24 - Количество осадков - Количество выпавших осадков за 24 часа, мм.
S - Снежный покров - Высота снежного покрова, см. При наведении курсора мыши на число - состояние снежного покрова и степень покрытия местности в баллах.